401  
ASUS41 KBOX 181210  
RWRBOX  
 
REGIONAL WEATHER ROUNDUP  
NATIONAL WEATHER SERVICE BOSTON/NORTON MA  
800 AM EDT WED JUL 18 2018  
 
NOTE: "FAIR" INDICATES FEW OR NO CLOUDS BELOW 12,000 FEET WITH NO  
SIGNIFICANT WEATHER AND/OR S TO VISIBILITY
.  
 
MAZALL-181300-  
EASTERN MASSACHUSETTS  
 
CITY SKY/WX TMP DP RH WIND PRES REMARKS
 
BOSTON FAIR 73 65 75 NW14 29.84R  
6HR MIN TEMP: 71; 6HR MAX TEMP: 74; 6HR PCP: 0.01;  
 
BEVERLY PTSUNNY 71 67 87 NW12 29.84R  
LAWRENCE CLOUDY 71 61 70 N7 29.88R  
BEDFORD PTSUNNY 70 63 78 N9 29.85R  
BLUE HILL N/A 66 65 96 N12G20 29.85R  
NORWOOD FAIR 72 66 81 NW7 29.84R  
MARSHFIELD CLOUDY 73 72 94 VRB7 29.83R  
PLYMOUTH CLOUDY 73 70 90 N10 29.83R  
TAUNTON PTSUNNY 73 69 87 N7 29.83R  
NEW BEDFORD CLOUDY 73 72 96 VRB5 29.81S  

 
 
MAZALL-181300-  
CAPE COD AND THE ISLANDS  
 
CITY SKY/WX TMP DP RH WIND PRES REMARKS
 
FALMOUTH CLOUDY 72 70 94 N8 29.82S  
HYANNIS CLOUDY 72 70 93 N6 29.81R  
CHATHAM LGT RAIN 72 69 90 NE3 29.82R  
PROVINCETOWN CLOUDY 69 68 96 N5 29.83R  
NANTUCKET CLOUDY 71 70 96 NW3 29.81S  
MARTHAS VNYRD CLOUDY 72 71 97 N3 29.81R FOG  

 
 
MAZALL-181300-  
CENTRAL AND WESTERN MASSACHUSETTS  
 
CITY SKY/WX TMP DP RH WIND PRES REMARKS
 
WORCESTER MOSUNNY 66 57 72 N14 29.89R  
FITCHBURG PTSUNNY 68 61 78 NW12 29.89R  
ORANGE FAIR 69 59 70 N8 29.92R  
SPRINGFIELD MOSUNNY 70 61 74 N14 29.88R  
WESTFIELD FAIR 70 63 78 N9 29.89R  
NORTH ADAMS FAIR 63 59 87 W8 29.94R  
PITTSFIELD N/A N/A N/A N/A MISG 29.93R  

 
 
RIZALL-181300-  
RHODE ISLAND  
 
CITY SKY/WX TMP DP RH WIND PRES REMARKS
 
PROVIDENCE FAIR 73 65 75 N13G22 29.84R  
6HR MIN TEMP: 71; 6HR MAX TEMP: 73;  
 
NEWPORT PTSUNNY 72 68 87 N15G21 29.82R  
BLOCK ISLAND FAIR 72 70 93 N8 29.83R  
SMITHFIELD PTSUNNY 69 65 86 N9 29.86R  
WESTERLY FAIR 74 70 87 N10 29.83R  

 
 
CTZALL-181300-  
CONNECTICUT  
 
CITY SKY/WX TMP DP RH WIND PRES REMARKS
 
BRADLEY INTL FAIR 70 65 84 N10 29.88R  
6HR MIN TEMP: 65; 6HR MAX TEMP: 71;  
 
HARTFORD FAIR 72 64 76 N14 29.87R  
BRIDGEPORT FAIR 72 61 68 N16G25 29.85R  
DANBURY FAIR 68 62 81 NW3 29.91R  
GROTON FAIR 74 68 81 N10 29.82R  
NEW HAVEN FAIR 73 64 73 N16 29.85R  
CHESTER FAIR 73 66 78 N8G15 29.86R  
MERIDEN FAIR 72 62 71 N10 29.87R  
WILLIMANTIC CLOUDY 72 66 81 N7 29.86R  
OXFORD FAIR 68 63 84 N10 29.90R  

 
 
MEZ002-015-021-024-NHZ003-005-008-011-012-014-VTZ005-008-181300-  
NORTHERN NEW ENGLAND  
 
CITY SKY/WX TMP DP RH WIND PRES REMARKS
 
PORTLAND ME FAIR 69 61 75 VRB7 29.85R  
6HR MIN TEMP: 64; 6HR MAX TEMP: 69;  
 
BANGOR ME FAIR 66 62 87 NW7 29.80R  
CONCORD NH FAIR 66 59 78 NW12 29.90R  
MANCHESTER NH FAIR 69 59 70 NW14 29.87R  
NASHUA NH FAIR 68 62 81 N10 29.89R  
PORTSMOUTH NH PTSUNNY 68 62 83 NW6 29.85R  
JAFFREY NH FAIR 66 59 78 VRB6 29.92R  
KEENE NH FAIR 68 59 73 N10 29.92R  
BURLINGTON VT FAIR 66 50 56 N10 29.98R  
MT. WASHINGTON FOG 41 41 100 NW51G59 N/A VSB 3/16WCI 27  

 
 
NYZ052-076-181300-  
EASTERN NEW YORK  
 
CITY SKY/WX TMP DP RH WIND PRES REMARKS
 
ALBANY FAIR 68 54 60 NE12G20 29.96R  
6HR MIN TEMP: 65; 6HR MAX TEMP: 69;  
 
NEW YORK CITY FAIR 73 60 63 N14 29.86R  
6HR MIN TEMP: 71; 6HR MAX TEMP: 75;  
 

 
 
ANZALL-181300-  
MARINE OBSERVATIONS  
 
STATION/POSITION TIME TEMP WIND PRES VSBY WAVE
 
AIR SEA DIR/SP/G HT/PER  
(UTC) (F) (DEG/KT/KT) (MB) (MI) (FT/S)  
BOSTON BUOY 1150 68 68 320/ 8/ 10 1009.7R 1/ 9  
BUZZARDS BAY 1100 69 310/ 5/ 5 1009.9R  
NANTUCKET SOUND 1150 72 72 320/ 6/ 8 1009.1R 1  
MASS BAY-STELLWA 1104 65 63 310/ 4/ 6 1008.6R 2/ 8  
ISLE OF SHOALS 1200 67 320/ 12/ 14 1010.2R  
S OF BLOCK IS 1143 71 N/A 4/ 6  

 
   
.....................KEY......................
 
 
SKY/WX - SKY CONDITION/PRESENT WEATHER  
TMP - TEMPERATURE IN FAHRENHEIT  
DWPT - DEWPOINT IN FAHRENHEIT  
RH - RELATIVE HUMIDITY IN PERCENT  
WIND - DIRECTION AND SPEED IN MPH  
PRES - MEAN SEA LEVEL PRESSURE IN INCHES OF HG  
WCI - WIND CHILL INDEX  
VSB - VISIBILITY IN MILES  
HX - HEAT INDEX  
TC - TEMPERATURE IN CELSIUS  
VRB - VARIABLE WIND DIRECTION  
N/A - NOT AVAILABLE  
 
 
CLICK HERE TO GO TO PREVIOUS BULLETINS.

The Nexlab MA Page
The Nexlab RI Page
The Nexlab NH Page
The Nexlab CT Page Main Text Page